Location: Crescent
(42.8242°N, 73.7329°W)
Time: 06:16:16
(UTC+00:00)

Vanguard 2 Rocket - Pass Details

Date: 20 February 2026
Orbit: 553 x 3286 km, 32.9° (Epoch: 13 March)

Event Time Altitude Azimuth Distance (km) Brightness Sun altitude
Rises 17:38:54 0° 246° (WSW) 7,253 11.9 36.0°
Reaches altitude 10° 17:43:59 10° 243° (WSW) 6,212 11.7 35.8°
Maximum altitude 18:02:32 56° 173° (S) 3,068 11.0 35.1°
Drops below altitude 10° 18:15:01 10° 100° (E) 4,342 10.4 34.3°
Sets 18:17:53 0° 96° (E) 5,027 10.6 34.2°
